Location: Fredericksburg
(30.2750°N, 98.8720°W)
Time: 13:48:27
(UTC-05:00)

Daily predictions for brighter satellites

Satellite Brightness Start Highest point End
(mag) Time Altitude Azimuth Time Altitude Azimuth Time Altitude Azimuth
CZ-4B DEB 3.1 20:51:33 10° S 20:54:53 75° W 20:58:12 10° NNW
Meteor 2-15 Rocket 4.4 20:49:14 10° S 20:55:16 74° E 21:01:19 10° N
Skynet4D Del rocket 4.5 20:50:09 10° W 20:55:17 36° SSW 21:00:09 10° SE
Cosmos 1812 3.8 20:52:42 10° SSW 20:56:26 49° W 21:00:11 10° N
ATLAS CENTAUR R/B 2.5 20:53:30 10° SW 20:58:18 62° WNW 21:03:18 10° NNE
SL-24 R/B - RUBIN 2 4.1 20:54:40 10° SSW 20:59:45 85° ESE 21:05:35 10° NNE
Cosmos 2237 Rocket 2.9 20:56:12 10° SSW 21:01:43 61° WNW 21:07:17 10° NNE
ATLAS 3B CENTAUR R/B 3.5 20:59:49 10° WSW 21:02:48 21° S 21:08:22 10° SE
Resurs 01 Rocket 3.2 20:58:48 10° SSW 21:02:55 38° W 21:07:04 10° NNW
Okean 1-7 Rocket 4.4 20:58:39 10° SSW 21:02:57 55° W 21:07:16 10° N
RESURS DK-1 3.5 20:59:52 10° NW 21:03:49 45° WSW 21:07:45 10° S
Chandra Rocket (1) 4.4 20:58:55 10° W 21:05:11 82° S 21:34:29 10° E
Atlas Centaur 2 3.2 21:00:06 10° SW 21:06:55 47° SSE 21:14:50 10° E
GEOS 3 Rocket 4.1 21:03:17 10° SE 21:08:18 47° NE 21:13:18 10° NNW
Tiangong 1 3.5 21:08:22 10° W 21:10:27 16° SW 21:12:32 10° S
Cosmos 1315 Rocket 4.1 21:07:37 10° NNW 21:11:29 42° W 21:15:18 10° SSW
Cosmos 2278 Rocket 2.3 21:09:42 10° NNW 21:15:21 65° ENE 21:20:58 10° SSE
Cosmos 1025 Rocket 3.0 21:11:35 10° S 21:15:58 81° E 21:20:21 10° N
Cosmos 494 Rocket 4.1 21:11:06 10° S 21:16:03 53° ESE 21:21:00 10° NNE
PSLV R/B 3.3 21:12:51 10° SW 21:16:21 79° SSE 21:19:54 10° ENE
Cosmos 1725 Rocket 4.4 21:10:10 10° NNW 21:16:22 67° W 21:22:31 10° S
CZ-2D R/B 3.2 21:13:19 10° SSE 21:17:12 84° ENE 21:21:07 10° N
Aureole 2 Rocket 3.6 21:14:06 10° SSE 21:17:45 30° ESE 21:21:09 10° NE
COSMOS 2455 4.1 21:14:34 10° SSE 21:18:34 19° ESE 21:22:35 10° ENE
USA 186 1.5 21:15:41 10° SSE 21:18:41 66° ENE 21:21:29 10° N
Cosmos 1892 Rocket 3.6 21:15:53 10° S 21:20:12 58° E 21:24:35 10° NNE
ISS -1.3 21:18:29 10° SSE 21:19:19 13° SSE 21:19:19 13° SSE
CZ-4 DEB 2.7 21:18:48 10° SSE 21:22:01 76° ENE 21:25:14 10° N
Intelsat 5-2 Rocket 4.2 21:26:07 10° SW 21:27:06 12° SSW 21:27:45 11° S
SPOT 5 4.4 21:26:57 13° E 21:28:43 17° ENE 21:31:29 10° NNE
SL-16 R/B 2.3 21:23:06 10° SSW 21:28:45 86° WNW 21:34:26 10° NNE
Lacrosse 5 rocket 4.1 21:29:43 10° W 21:32:37 21° NW 21:35:38 10° N
Cosmos 1666 4.1 21:30:46 10° NNE 21:33:47 21° ENE 21:34:50 19° E
Meteor 2-17 Rocket 4.4 21:28:00 10° N 21:34:09 76° E 21:40:17 10° S
Cosmos 1500 3.6 21:31:15 10° NNW 21:35:06 63° W 21:38:56 10° S
OTV 4 0.9 21:36:00 10° WNW 21:38:53 48° SSW 21:40:00 29° SSE
Meteor 1-23 Rocket 4.2 21:38:02 10° S 21:43:38 84° E 21:49:20 10° N
Cosmos 1331 Rocket 4.2 21:39:11 10° N 21:44:15 53° ENE 21:47:14 23° SE
Cosmos 1743 2.6 21:41:36 10° N 21:45:27 88° W 21:48:15 18° S
Okean 2 3.4 21:44:48 10° S 21:48:58 89° WNW 21:53:10 10° N
ALOS 3.1 21:45:38 10° S 21:50:08 49° W 21:54:39 10° NNW
Cosmos 1726 Rocket 3.5 21:46:28 10° N 21:50:54 87° W 21:54:12 18° S
SeaSat 1 3.5 21:50:09 22° E 21:52:14 30° ENE 21:56:30 10° N
Star 37D S/N 012 3.9 21:50:49 10° W 21:53:37 72° S 21:53:42 71° SSE
Cosmos 2285 Rocket 4.1 21:48:13 10° N 21:54:27 59° ENE 21:58:06 25° SE
Cosmos 1603 3.7 21:52:05 10° S 21:57:35 60° ESE 22:03:06 10° NNE
CZ-4B R/B 4.0 21:57:12 10° NNE 22:02:00 40° E 22:03:35 32° SE
Cosmos 2058 Rocket 3.0 21:57:42 10° N 22:02:05 86° W 22:04:29 26° S
Cosmos 1602 Rocket 3.6 22:01:25 28° SSE 22:03:36 63° E 22:08:02 10° NNE
UNK 4.3 21:58:56 10° NNE 22:04:18 57° ESE 22:08:12 20° S
Meteor 2-4 Rocket 4.4 22:00:08 10° SSW 22:05:49 59° W 22:11:40 10° N
APEX 4.4 22:01:57 10° N 22:06:08 42° ENE 22:07:37 34° ESE
CZ-2C R/B 2.4 22:06:26 24° WSW 22:06:45 25° W 22:08:44 10° NW
Cosmos 1464 Rocket 3.9 22:01:11 10° N 22:07:21 84° E 22:11:28 23° S
Meteor 2-9 Rocket 4.2 22:02:58 10° N 22:08:42 76° E 22:11:49 29° SSE
PSLV R/B 4.0 22:09:29 38° NE 22:09:29 38° NE 22:11:55 10° N
Delta 168 3.4 22:06:38 10° WSW 22:10:14 41° S 22:10:31 41° SSE
Cosmos 1461 4.4 22:07:25 10° N 22:10:44 22° NE 22:11:08 22° ENE
Cosmos 2297 3.9 22:12:27 10° NNW 22:18:08 70° WSW 22:21:02 30° S
ATLAS 3B R/B 3.4 22:16:52 31° SE 22:19:14 38° ESE 22:26:07 10° NE
Cosmos 1812 Rocket 4.2 22:15:57 10° NNE 22:19:55 38° ENE 22:19:55 38° ENE
ERS-1 Rocket 3.8 22:16:55 18° SSW 22:20:24 47° W 22:25:14 10° NNW
Envisat 2.9 22:19:51 41° SSE 22:21:41 84° ENE 22:26:47 10° N
Cosmos 1943 3.7 22:23:34 37° E 22:23:34 37° E 22:28:24 10° NE
YAOGAN 6 3.9 22:24:55 29° NE 22:24:55 29° NE 22:27:27 10° N
Cosmos 2034 Rocket 3.9 22:18:56 10° N 22:25:19 87° E 22:28:23 33° S
H-2A R/B 3.1 22:25:28 25° SSW 22:27:25 40° W 22:31:27 10° NNW
Centaur D AC-29 4.0 22:21:46 10° W 22:32:30 19° SW 22:35:57 13° SSW
USA 234 4.0 22:30:35 29° E 22:33:21 43° NE 22:39:28 10° NNW
Cosmos 1626 Rocket 4.4 22:34:50 25° SW 22:37:08 48° W 22:41:26 10° N
Abrixas rocket 4.0 22:34:08 10° NNW 22:36:37 27° NNE 22:36:37 27° NNE
MetOp-A 4.0 22:37:42 58° SSE 22:38:46 80° ENE 22:44:08 10° N
Atlas Centaur 2 2.9 22:48:40 10° WSW 22:56:36 83° S 23:00:55 34° E
Meteor 2-12 Rocket 4.3 22:52:46 10° N 22:58:52 87° E 22:59:40 69° SSE
H-2A R/B 3.3 22:59:58 26° NE 22:59:58 26° NE 23:03:10 10° NNE
Cosmos 2346 Rocket 4.3 23:01:24 67° S 23:02:17 85° E 23:08:29 10° N
COSMOS 2455 3.6 22:58:13 10° SW 23:04:00 50° WNW 23:09:51 10° NNE
CZ-4 R/B 4.2 23:01:04 10° N 23:06:00 63° WNW 23:06:34 58° WSW
SPOT 5 4.0 23:06:11 31° WSW 23:06:32 32° W 23:10:27 10° NW
SPOT 1/Viking Rocket 3.5 23:07:23 76° W 23:07:23 76° W 23:12:28 10° NNW
Milstar 3 Cent rocket 3.5 23:04:34 10° W 23:08:19 26° SW 23:08:19 26° SW
ARGOS 3.1 23:10:54 83° N 23:10:54 83° N 23:16:09 10° NNW
Cosmos 2369 Rocket 3.1 23:08:32 10° N 23:13:08 37° NE 23:13:08 37° NE
Cosmos 1190 Rocket 4.2 23:17:39 68° NNW 23:17:39 68° NNW 23:22:24 10° NNE
NOAA 11 4.2 23:19:15 76° NW 23:19:15 76° NW 23:24:15 10° NNW
Lacrosse 4 Rocket 3.9 23:31:19 16° NNE 23:31:19 16° NNE 23:32:10 10° NNE
SeaSat 1 4.0 23:29:58 26° WSW 23:29:58 26° WSW 23:33:45 10° NW
Terra 3.1 23:35:13 35° N 23:35:13 35° N 23:38:04 10° N
